Time,TemperatureF,DewpointF,PressureIn,WindDirection,WindDirectionDegrees,WindSpeedMPH,WindSpeedGustMPH,Humidity,HourlyPrecipIn,Conditions,Clouds,dailyrainin,SolarRadiationWatts/m^2,SoftwareType,DateUTC
2013-08-10 00:02:00,69.0,69.0,-100.00,NE,42,2.0,6.0,100,0.00,,,0.33,0.000000,,2013-08-10 04:02:00,
2013-08-10 00:32:00,68.0,68.0,-100.00,NE,40,4.0,9.0,100,0.00,,,0.33,0.000000,,2013-08-10 04:32:00,
2013-08-10 00:43:00,68.0,68.0,-100.00,NE,40,4.0,9.0,100,0.00,,,0.33,0.000000,,2013-08-10 04:43:00,
2013-08-10 00:53:00,68.0,68.0,-100.00,NE,40,4.0,9.0,100,0.00,,,0.33,0.000000,,2013-08-10 04:53:00,
2013-08-10 01:02:00,68.0,68.0,-100.00,NE,40,4.0,9.0,100,0.00,,,0.33,0.000000,,2013-08-10 05:02:00,
2013-08-10 01:32:00,67.0,67.0,-100.00,NE,40,4.0,8.0,100,0.00,,,0.33,0.000000,,2013-08-10 05:32:00,
2013-08-10 01:43:00,67.0,67.0,-100.00,NE,40,4.0,8.0,100,0.00,,,0.33,0.000000,,2013-08-10 05:43:00,
2013-08-10 01:52:00,67.0,67.0,-100.00,NE,40,4.0,8.0,100,0.00,,,0.33,0.000000,,2013-08-10 05:52:00,
2013-08-10 02:02:00,67.0,67.0,-100.00,NE,40,4.0,8.0,100,0.00,,,0.33,0.000000,,2013-08-10 06:02:00,
2013-08-10 02:32:00,66.0,66.0,-100.00,NE,40,6.0,10.0,100,0.00,,,0.32,0.000000,,2013-08-10 06:32:00,
2013-08-10 02:44:00,66.0,66.0,-100.00,NE,40,6.0,10.0,100,0.00,,,0.32,0.000000,,2013-08-10 06:44:00,
2013-08-10 02:53:00,66.0,66.0,-100.00,NE,40,6.0,10.0,100,0.00,,,0.32,0.000000,,2013-08-10 06:53:00,
2013-08-10 03:02:00,66.0,66.0,-100.00,NE,40,6.0,10.0,100,0.00,,,0.32,0.000000,,2013-08-10 07:02:00,
2013-08-10 03:33:00,65.0,65.0,-100.00,NE,42,6.0,12.0,100,0.00,,,0.32,0.000000,,2013-08-10 07:33:00,
2013-08-10 03:43:00,65.0,65.0,-100.00,NE,42,6.0,12.0,100,0.00,,,0.32,0.000000,,2013-08-10 07:43:00,
2013-08-10 03:52:00,65.0,65.0,-100.00,NE,42,6.0,12.0,100,0.00,,,0.32,0.000000,,2013-08-10 07:52:00,
2013-08-10 04:02:00,65.0,65.0,-100.00,NE,42,6.0,12.0,100,0.00,,,0.32,0.000000,,2013-08-10 08:02:00,
2013-08-10 04:32:00,64.0,64.0,-100.00,NE,36,7.0,10.0,100,0.00,,,0.32,0.000000,,2013-08-10 08:32:00,
2013-08-10 04:43:00,64.0,64.0,-100.00,NE,36,7.0,10.0,100,0.00,,,0.32,0.000000,,2013-08-10 08:43:00,
2013-08-10 04:53:00,64.0,64.0,-100.00,NE,36,7.0,10.0,100,0.00,,,0.32,0.000000,,2013-08-10 08:53:00,
2013-08-10 05:02:00,64.0,64.0,-100.00,NE,36,7.0,10.0,100,0.00,,,0.32,0.000000,,2013-08-10 09:02:00,
2013-08-10 05:32:00,63.0,63.0,-100.00,NE,46,5.0,11.0,100,0.00,,,0.32,0.000000,,2013-08-10 09:32:00,
2013-08-10 05:43:00,63.0,63.0,-100.00,NE,46,5.0,11.0,100,0.00,,,0.32,0.000000,,2013-08-10 09:43:00,
2013-08-10 05:52:00,63.0,63.0,-100.00,NE,46,5.0,11.0,100,0.00,,,0.32,0.000000,,2013-08-10 09:52:00,
2013-08-10 06:02:00,63.0,63.0,-100.00,NE,46,5.0,11.0,100,0.00,,,0.32,0.000000,,2013-08-10 10:02:00,
2013-08-10 06:33:00,63.0,63.0,-100.00,NE,44,5.0,9.0,100,0.00,,,0.31,0.000000,,2013-08-10 10:33:00,
2013-08-10 06:44:00,63.0,63.0,-100.00,NE,44,5.0,9.0,100,0.00,,,0.31,0.000000,,2013-08-10 10:44:00,
2013-08-10 06:53:00,63.0,63.0,-100.00,NE,44,5.0,9.0,100,0.00,,,0.31,0.000000,,2013-08-10 10:53:00,
2013-08-10 07:02:00,63.0,63.0,-100.00,NE,44,5.0,9.0,100,0.00,,,0.31,0.000000,,2013-08-10 11:02:00,
2013-08-10 09:43:00,66.0,62.0,-100.00,NNE,23,3.0,7.0,87,-99.99,,,0.02,185.000000,,2013-08-10 13:43:00,
2013-08-10 09:52:00,66.0,62.0,-100.00,NNE,23,3.0,7.0,87,-99.99,,,0.02,185.000000,,2013-08-10 13:52:00,
2013-08-10 10:02:00,66.0,62.0,-100.00,NNE,23,3.0,7.0,87,-99.99,,,0.02,185.000000,,2013-08-10 14:02:00,
2013-08-10 10:33:00,69.0,64.0,-100.00,NNE,24,3.0,6.0,83,0.00,,,0.02,270.000000,,2013-08-10 14:33:00,
2013-08-10 10:43:00,69.0,64.0,-100.00,NNE,24,3.0,6.0,83,0.00,,,0.02,270.000000,,2013-08-10 14:43:00,
2013-08-10 10:53:00,69.0,64.0,-100.00,NNE,24,3.0,6.0,83,0.00,,,0.02,270.000000,,2013-08-10 14:53:00,
2013-08-10 11:02:00,69.0,64.0,-100.00,NNE,24,3.0,6.0,83,0.00,,,0.02,270.000000,,2013-08-10 15:02:00,
2013-08-10 11:34:00,70.0,62.0,-100.00,NNE,22,4.0,9.0,76,0.00,,,0.02,399.000000,,2013-08-10 15:34:00,
2013-08-10 11:43:00,70.0,62.0,-100.00,NNE,22,4.0,9.0,76,0.00,,,0.02,399.000000,,2013-08-10 15:43:00,
2013-08-10 11:52:00,70.0,62.0,-100.00,NNE,22,4.0,9.0,76,0.00,,,0.02,399.000000,,2013-08-10 15:52:00,
2013-08-10 12:02:00,70.0,62.0,-100.00,NNE,22,4.0,9.0,76,0.00,,,0.02,399.000000,,2013-08-10 16:02:00,
2013-08-10 12:32:00,72.0,64.0,-100.00,NNE,28,4.0,8.0,75,0.00,,,0.02,536.000000,,2013-08-10 16:32:00,
2013-08-10 12:43:00,72.0,64.0,-100.00,NNE,28,4.0,8.0,75,0.00,,,0.02,536.000000,,2013-08-10 16:43:00,
2013-08-10 12:53:00,72.0,64.0,-100.00,NNE,28,4.0,8.0,75,0.00,,,0.02,536.000000,,2013-08-10 16:53:00,
2013-08-10 13:02:00,72.0,64.0,-100.00,NNE,28,4.0,8.0,75,0.00,,,0.02,536.000000,,2013-08-10 17:02:00,
2013-08-10 13:33:00,76.0,64.0,-100.00,SW,227,4.0,8.0,66,0.00,,,0.02,760.000000,,2013-08-10 17:33:00,
2013-08-10 13:43:00,76.0,64.0,-100.00,SW,227,4.0,8.0,66,0.00,,,0.02,760.000000,,2013-08-10 17:43:00,
2013-08-10 13:52:00,76.0,64.0,-100.00,SW,227,4.0,8.0,66,0.00,,,0.02,760.000000,,2013-08-10 17:52:00,
2013-08-10 14:01:00,76.0,64.0,-100.00,SW,227,4.0,8.0,66,0.00,,,0.02,760.000000,,2013-08-10 18:01:00,
2013-08-10 14:32:00,77.0,63.0,-100.00,ENE,68,4.0,14.0,63,0.00,,,0.02,758.000000,,2013-08-10 18:32:00,
2013-08-10 14:44:00,77.0,63.0,-100.00,ENE,68,4.0,14.0,63,0.00,,,0.02,758.000000,,2013-08-10 18:44:00,
2013-08-10 14:52:00,77.0,63.0,-100.00,ENE,68,4.0,14.0,63,0.00,,,0.02,758.000000,,2013-08-10 18:52:00,
2013-08-10 15:02:00,77.0,63.0,-100.00,ENE,68,4.0,14.0,63,0.00,,,0.02,758.000000,,2013-08-10 19:02:00,
2013-08-10 15:33:00,80.0,65.0,-100.00,SSW,211,4.0,10.0,60,0.00,,,0.02,698.000000,,2013-08-10 19:33:00,
2013-08-10 15:44:00,80.0,65.0,-100.00,SSW,211,4.0,10.0,60,0.00,,,0.02,698.000000,,2013-08-10 19:44:00,
2013-08-10 15:53:00,80.0,65.0,-100.00,SSW,211,4.0,10.0,60,0.00,,,0.02,698.000000,,2013-08-10 19:53:00,
2013-08-10 16:02:00,80.0,65.0,-100.00,SSW,211,4.0,10.0,60,0.00,,,0.02,698.000000,,2013-08-10 20:02:00,
2013-08-10 16:33:00,75.0,61.0,-100.00,SSW,207,4.0,10.0,62,0.00,,,0.01,446.000000,,2013-08-10 20:33:00,
2013-08-10 16:43:00,75.0,61.0,-100.00,SSW,207,4.0,10.0,62,0.00,,,0.01,446.000000,,2013-08-10 20:43:00,
2013-08-10 16:53:00,75.0,61.0,-100.00,SSW,207,4.0,10.0,62,0.00,,,0.01,446.000000,,2013-08-10 20:53:00,
2013-08-10 17:02:00,75.0,61.0,-100.00,SSW,207,4.0,10.0,62,0.00,,,0.01,446.000000,,2013-08-10 21:02:00,
2013-08-10 17:32:00,80.0,65.0,-100.00,SSE,165,4.0,9.0,61,0.00,,,0.00,414.000000,,2013-08-10 21:32:00,
2013-08-10 17:43:00,80.0,65.0,-100.00,SSE,165,4.0,9.0,61,0.00,,,0.00,414.000000,,2013-08-10 21:43:00,
2013-08-10 17:52:00,80.0,65.0,-100.00,SSE,165,4.0,9.0,61,0.00,,,0.00,414.000000,,2013-08-10 21:52:00,
2013-08-10 18:02:00,80.0,65.0,-100.00,SSE,165,4.0,9.0,61,0.00,,,0.00,414.000000,,2013-08-10 22:02:00,
2013-08-10 18:32:00,77.0,68.0,-100.00,NE,49,2.0,5.0,75,0.00,,,0.00,176.000000,,2013-08-10 22:32:00,
2013-08-10 18:43:00,77.0,68.0,-100.00,NE,49,2.0,5.0,75,0.00,,,0.00,176.000000,,2013-08-10 22:43:00,
2013-08-10 18:53:00,77.0,68.0,-100.00,NE,49,2.0,5.0,75,0.00,,,0.00,176.000000,,2013-08-10 22:53:00,
2013-08-10 19:02:00,77.0,68.0,-100.00,NE,49,2.0,5.0,75,0.00,,,0.00,176.000000,,2013-08-10 23:02:00,
2013-08-10 19:33:00,73.0,61.0,-100.00,NE,46,3.0,8.0,67,0.00,,,0.00,160.000000,,2013-08-10 23:33:00,
2013-08-10 19:43:00,73.0,61.0,-100.00,NE,46,3.0,8.0,67,0.00,,,0.00,160.000000,,2013-08-10 23:43:00,
2013-08-10 19:53:00,73.0,61.0,-100.00,NE,46,3.0,8.0,67,0.00,,,0.00,160.000000,,2013-08-10 23:53:00,
2013-08-10 20:02:00,73.0,61.0,-100.00,NE,46,3.0,8.0,67,0.00,,,0.00,160.000000,,2013-08-11 00:02:00,
2013-08-10 20:32:00,67.0,62.0,-100.00,NE,55,2.0,7.0,83,0.00,,,0.00,39.000000,,2013-08-11 00:32:00,
2013-08-10 20:42:00,67.0,62.0,-100.00,NE,55,2.0,7.0,83,0.00,,,0.00,39.000000,,2013-08-11 00:42:00,
2013-08-10 20:52:00,67.0,62.0,-100.00,NE,55,2.0,7.0,83,0.00,,,0.00,39.000000,,2013-08-11 00:52:00,
2013-08-10 21:02:00,67.0,62.0,-100.00,NE,55,2.0,7.0,83,0.00,,,0.00,39.000000,,2013-08-11 01:02:00,
2013-08-10 21:32:00,64.0,62.0,-100.00,NE,51,2.0,5.0,94,0.00,,,0.00,1.000000,,2013-08-11 01:32:00,
2013-08-10 21:43:00,64.0,62.0,-100.00,NE,51,2.0,5.0,94,0.00,,,0.00,1.000000,,2013-08-11 01:43:00,
2013-08-10 21:54:00,64.0,62.0,-100.00,NE,51,2.0,5.0,94,0.00,,,0.00,1.000000,,2013-08-11 01:54:00,
2013-08-10 22:02:00,64.0,62.0,-100.00,NE,51,2.0,5.0,94,0.00,,,0.00,1.000000,,2013-08-11 02:02:00,
2013-08-10 22:32:00,64.0,60.0,-100.00,East,82,2.0,8.0,86,0.00,,,0.00,0.000000,,2013-08-11 02:32:00,
2013-08-10 22:43:00,64.0,60.0,-100.00,East,82,2.0,8.0,86,0.00,,,0.00,0.000000,,2013-08-11 02:43:00,
2013-08-10 22:58:00,64.0,60.0,-100.00,East,82,2.0,8.0,86,0.00,,,0.00,0.000000,,2013-08-11 02:58:00,
2013-08-10 23:07:00,64.0,60.0,-100.00,East,82,2.0,8.0,86,0.00,,,0.00,0.000000,,2013-08-11 03:07:00,
2013-08-10 23:36:00,63.0,60.0,-100.00,ENE,69,2.0,6.0,91,0.00,,,0.00,0.000000,,2013-08-11 03:36:00,
2013-08-10 23:58:00,63.0,60.0,-100.00,ENE,69,2.0,6.0,91,0.00,,,0.00,0.000000,,2013-08-11 03:58:00,